Wind_Speed
9 9 10 10 11 11 12 12 13 13 13 13 13 13 13 13 12 12 12 12 13 13 13 13 13 13 13 14 14 15 16 16 17 18 19 15 11 10 8 6 5 4 5 2 3 3 2 2 0 3 2 1 3 3 3 4 4 5 4 2 0 2 3 1 1 2 1 2 5 5 5 5 4 5 5 5 6 7 8 7 5 5 3 2 5 10 16 19
9 10 10 11 11 12 12 13 13 13 13 13 13 13 13 12 12 11 11 11 11 11 11 11 10 10 11 11 11 12 12 12 14 16 17 17 13 11 8 3 2 4 5 3 4 2 1 0 1 2 2 2 3 3 3 3 5 4 3 1 3 4 4 2 2 3 1 2 4 4 4 4 4 5 6 5 7 9 8 8 8 8 7 6 9 13 17 20
10 10 11 11 12 12 13 13 13 13 13 14 14 14 13 13 13 12 11 11 10 10 9 9 9 8 9 9 9 9 9 9 10 10 14 16 14 13 11 6 3 2 4 4 3 2 1 1 1 1 3 2 4 3 3 3 4 4 4 2 5 4 3 4 4 3 2 2 2 3 2 3 3 4 6 5 6 8 7 7 9 10 10 10 12 15 17 21
10 10 11 11 11 12 12 12 12 12 13 13 13 13 13 13 13 13 12 11 11 10 9 9 8 7 7 7 7 7 8 8 5 5 9 13 14 14 12 9 7 5 0 2 3 2 1 2 1 2 3 2 5 2 3 5 4 4 5 4 5 3 1 6 5 4 3 2 2 2 2 3 3 4 6 5 5 6 6 6 7 9 13 14 15 16 18 22
10 10 10 11 11 11 11 11 11 11 12 12 12 12 12 12 12 13 13 12 12 10 10 8 7 6 6 6 6 5 7 4 3 1 6 10 14 15 13 10 8 7 4 3 4 3 1 2 2 3 3 4 5 2 5 6 4 3 3 4 4 2 2 4 5 4 3 2 2 3 2 1 2 5 6 6 6 2 2 4 5 9 14 16 18 18 19 22
10 10 11 11 10 10 10 10 10 11 11 11 11 11 11 11 11 12 12 12 12 11 10 9 7 6 6 6 5 5 6 2 3 3 4 9 14 14 13 10 8 7 5 5 4 3 2 2 3 4 3 4 6 6 6 5 4 2 4 5 3 2 3 3 5 4 2 1 2 2 1 2 3 5 5 7 8 2 3 2 4 10 14 15 18 19 20 23
11 11 11 11 11 10 10 10 10 11 11 11 11 11 11 11 11 11 11 12 11 11 10 9 7 5 5 5 5 5 6 5 4 3 3 9 14 14 12 10 9 7 6 6 5 3 2 3 3 5 3 3 7 8 7 4 2 3 4 5 3 1 2 2 4 4 3 2 1 1 2 4 4 3 3 6 8 3 1 2 6 11 14 16 18 19 21 23
11 11 11 11 11 11 11 11 11 12 12 12 12 11 11 11 10 10 11 11 10 10 10 9 8 5 5 4 5 5 5 5 4 2 2 9 13 13 12 10 9 8 7 8 5 3 2 2 3 5 4 4 7 7 7 4 0 3 5 4 2 1 0 2 4 4 4 3 2 3 3 4 5 5 5 6 6 3 3 4 9 12 15 17 17 18 20 22
11 11 11 11 11 11 11 12 12 12 12 12 12 11 11 11 10 10 10 10 9 9 9 9 8 6 5 4 5 5 3 4 3 1 2 9 12 12 11 9 8 8 8 8 5 4 2 3 4 6 6 5 6 6 8 5 2 5 5 2 1 1 1 3 4 4 4 4 3 4 4 4 5 6 7 7 5 4 5 7 11 14 16 16 16 17 20 22
11 11 11 11 11 12 12 12 13 13 13 13 12 12 11 10 10 9 9 9 8 8 8 9 7 6 4 3 5 3 1 3 2 2 2 8 10 8 9 8 6 8 8 6 5 4 3 4 4 6 6 4 6 6 6 6 5 6 4 1 2 2 2 4 5 5 5 4 4 5 4 4 5 6 5 5 6 6 7 9 12 14 16 15 15 17 19 21
10 11 11 11 12 12 12 13 13 13 13 13 12 12 11 10 9 9 8 8 7 7 7 7 6 6 3 3 6 3 1 2 4 3 5 8 9 6 5 4 4 7 7 4 4 3 3 4 5 7 5 4 8 5 4 6 7 5 4 3 3 4 4 5 5 6 6 5 5 5 5 6 7 7 5 5 7 8 8 10 12 13 14 14 14 16 18 20
10 10 11 11 11 12 12 12 12 12 12 12 12 10 10 9 8 8 7 7 7 6 6 6 6 5 4 5 8 6 3 3 5 5 6 9 9 8 6 4 4 6 5 3 4 3 4 4 4 6 5 7 9 4 4 6 6 4 3 5 4 4 3 5 5 5 6 5 4 3 6 8 10 9 8 8 8 8 9 10 12 14 14 14 14 16 17 19
10 10 10 10 10 10 11 11 11 11 11 11 10 9 8 7 7 6 6 6 6 5 5 5 5 4 4 5 6 6 6 5 5 6 6 7 7 6 5 4 5 5 4 3 3 3 3 4 4 6 6 7 6 4 5 5 4 3 2 5 3 3 3 4 5 5 6 4 4 4 5 3 6 9 9 10 11 10 10 11 12 14 14 14 15 16 17 18
9 9 9 9 9 9 10 10 10 10 10 9 8 7 6 5 5 5 6 6 4 3 4 4 3 3 4 5 5 4 5 7 7 6 5 5 4 4 4 4 3 3 3 3 2 2 2 3 4 6 5 5 6 6 6 4 3 4 3 4 2 1 4 5 4 6 5 4 6 5 4 3 3 7 10 11 12 12 11 11 12 13 14 14 16 16 17 19
8 8 8 9 9 9 9 9 10 9 8 7 6 5 4 4 4 4 5 4 2 2 2 2 2 2 4 5 4 3 4 6 7 7 6 5 4 3 4 3 2 1 1 2 2 2 1 3 5 6 4 4 6 7 5 3 2 3 3 2 2 3 3 6 4 5 3 3 8 6 3 4 3 6 10 11 12 13 11 12 13 13 14 15 16 17 17 19
7 8 9 9 9 9 9 9 8 8 6 5 4 3 3 3 3 3 3 2 1 1 2 2 3 3 4 3 1 1 3 5 6 8 8 6 5 3 3 2 1 1 1 1 2 1 2 3 5 6 6 5 5 4 4 3 2 1 3 3 3 5 3 3 4 5 3 3 8 8 5 4 2 4 9 11 12 13 12 12 13 14 14 15 16 17 17 18
7 8 10 10 10 9 8 7 7 6 4 3 2 1 1 1 1 1 1 1 1 2 3 2 3 4 3 1 2 3 4 4 6 8 9 8 7 5 4 2 1 1 1 1 2 3 4 5 5 5 6 6 3 3 4 3 2 2 3 4 3 5 6 2 2 4 5 4 6 9 7 7 3 4 8 11 12 13 13 13 14 14 14 15 15 16 17 18
8 9 10 11 10 8 7 6 5 4 2 0 1 1 1 1 1 1 1 3 4 4 2 3 4 3 3 4 3 3 4 5 8 9 9 10 9 7 5 3 2 2 3 4 5 6 6 6 6 5 5 5 4 4 4 3 4 5 5 5 5 5 6 4 3 1 4 5 6 7 8 9 7 5 8 11 12 14 14 13 14 14 15 15 15 15 17 18
8 10 11 11 9 7 5 4 3 1 1 2 3 3 3 2 2 1 1 3 4 2 1 5 6 1 3 5 3 2 2 5 9 8 9 11 11 9 6 4 3 4 6 6 7 8 7 6 6 6 6 5 3 3 4 5 7 8 8 7 6 7 5 5 5 2 2 5 6 7 7 8 7 6 8 11 13 14 14 13 13 14 15 15 15 15 16 18
8 10 11 11 8 5 4 3 1 2 3 4 5 5 3 2 2 2 2 4 6 4 1 3 6 3 4 5 2 1 2 5 7 7 10 12 11 9 8 7 5 7 7 4 4 6 6 7 7 7 6 4 3 4 6 8 8 9 9 7 7 7 5 6 4 2 1 5 5 6 8 9 9 6 7 12 14 15 15 15 15 16 16 16 16 16 16 17
8 10 11 9 6 4 3 2 3 5 6 7 7 4 1 2 1 2 2 4 4 5 4 3 6 5 1 4 1 1 4 4 5 7 10 11 11 10 9 8 7 6 6 4 2 2 5 8 8 7 6 5 5 6 7 8 9 9 8 7 7 5 6 7 3 3 3 5 5 5 8 10 9 8 7 12 14 15 17 18 18 18 18 17 17 17 17 16
8 10 10 7 4 2 2 3 5 7 8 8 7 3 0 1 1 2 0 2 2 1 3 4 5 4 2 3 2 4 5 4 6 8 9 10 12 10 7 8 8 4 4 5 5 4 6 9 9 7 6 7 8 7 8 9 10 9 8 7 6 5 7 4 3 4 4 3 5 6 8 10 9 9 9 13 15 16 18 19 19 20 20 19 18 18 18 17
8 9 7 4 2 1 3 5 7 9 9 8 6 2 0 1 2 2 1 0 3 3 2 3 3 2 2 2 1 4 5 3 6 8 9 10 11 9 6 7 6 3 3 5 6 6 5 5 4 3 5 8 10 9 9 9 9 8 7 6 5 5 7 3 3 3 4 4 6 8 9 9 7 6 8 12 16 15 16 19 19 19 21 21 20 19 19 19
7 7 3 1 2 3 4 6 8 10 9 7 5 2 0 2 3 4 2 2 3 5 2 2 2 1 2 2 2 4 4 2 3 7 10 10 9 7 5 4 5 5 4 4 5 7 7 3 2 2 5 7 10 10 9 8 7 8 9 8 7 7 8 6 3 4 5 7 6 7 8 6 3 3 4 9 13 14 15 18 19 20 21 21 21 20 20 20
6 4 2 3 4 5 5 7 9 10 9 6 3 1 1 1 3 4 3 3 4 5 2 3 4 2 1 2 3 2 3 3 2 5 9 9 7 5 3 3 4 3 2 2 5 6 6 2 1 6 7 8 9 8 9 8 6 7 9 7 6 7 8 9 8 6 6 5 4 4 7 3 2 4 3 6 9 12 14 16 19 21 21 21 22 22 21 21
5 1 6 6 7 7 7 8 10 10 8 4 2 0 2 2 3 5 4 4 5 4 2 3 3 2 2 2 3 3 5 4 2 4 9 9 7 4 3 3 3 2 2 2 5 3 2 1 3 7 7 8 9 8 8 7 7 7 4 2 5 8 9 10 9 6 5 5 2 4 7 4 4 6 2 5 7 10 12 15 18 21 22 23 23 23 23 22
2 5 8 9 9 7 6 8 10 8 5 3 3 0 2 2 4 5 4 4 5 2 1 4 2 2 2 1 3 5 2 4 3 4 8 9 8 5 5 3 2 2 1 4 4 2 1 1 2 5 6 7 7 6 6 6 7 7 1 2 7 9 10 11 10 7 5 6 6 6 6 6 5 4 3 5 6 8 11 14 16 20 23 24 24 24 25 25
2 7 9 11 8 5 6 10 9 6 3 5 3 1 2 3 4 3 5 2 4 1 1 4 2 1 2 1 3 5 4 1 2 5 7 9 8 6 7 4 4 2 4 6 3 4 1 3 3 5 6 6 5 4 4 4 8 8 4 5 8 9 10 10 9 7 5 6 7 6 4 5 6 3 4 5 6 6 10 12 14 19 23 24 25 25 25 26
5 10 10 11 7 5 8 10 6 5 5 4 3 1 2 3 3 3 5 0 2 1 2 2 1 2 3 3 3 4 4 3 2 4 7 9 9 6 4 3 5 5 5 8 6 2 1 3 5 6 6 6 5 5 5 6 8 7 6 8 9 8 8 8 8 7 5 6 8 5 3 5 6 5 3 4 4 5 5 6 11 17 22 24 25 26 25 25
7 11 10 10 7 5 8 6 3 5 5 4 3 2 4 3 2 6 4 1 1 1 2 1 1 2 4 6 4 3 3 2 1 4 6 5 8 7 3 2 5 6 6 8 9 7 4 3 4 6 8 8 8 8 8 9 10 9 8 10 11 7 5 6 6 4 5 8 8 5 5 6 6 6 4 3 3 5 5 2 4 11 18 22 23 25 25 25
7 11 10 10 7 4 5 3 4 4 4 4 2 2 4 2 4 6 2 1 1 2 3 2 1 1 2 4 2 3 3 3 3 5 6 4 7 8 5 5 5 6 6 7 6 6 6 6 3 3 6 7 7 8 9 9 9 8 7 9 9 6 5 6 5 3 6 8 5 3 6 8 7 5 4 5 7 7 5 4 4 3 10 17 20 23 25 26
6 10 9 8 7 4 3 3 5 5 5 4 2 3 4 4 6 3 2 2 2 2 1 2 2 1 2 1 1 2 2 3 3 5 4 3 5 4 2 3 2 4 5 2 1 3 5 4 2 2 4 3 6 6 6 8 7 7 8 8 8 7 6 7 6 5 7 7 3 3 7 7 7 5 5 9 10 6 6 8 9 8 5 10 15 19 22 25
5 7 8 7 6 5 5 5 6 5 5 3 3 5 6 6 5 0 2 3 0 3 2 1 2 1 2 3 2 3 2 2 2 4 2 3 4 2 1 2 3 5 5 4 4 5 3 4 5 5 6 3 6 6 3 3 4 7 7 7 7 7 7 8 7 6 7 7 3 3 6 7 7 4 5 10 9 9 10 10 10 9 7 7 10 14 18 23
5 4 4 4 4 5 6 7 6 5 4 4 5 6 6 6 2 2 2 3 3 3 2 1 2 2 1 1 3 1 1 3 2 4 5 5 5 3 3 3 1 5 5 6 6 5 6 2 4 2 2 1 3 5 6 7 7 6 5 7 8 7 8 8 7 6 7 6 4 2 4 7 5 1 2 6 9 12 12 13 11 7 5 5 7 10 14 19
5 3 1 2 3 4 6 6 6 5 4 5 6 6 6 3 3 2 2 4 3 3 4 2 4 4 3 3 3 1 2 2 2 3 3 3 3 1 1 3 3 3 4 5 3 2 8 5 3 3 3 2 4 3 4 8 7 4 4 7 9 7 8 8 7 8 8 7 5 4 5 7 5 6 6 3 8 11 14 17 13 8 7 3 4 9 13 15
3 2 1 2 3 3 5 5 5 5 5 6 7 4 2 2 3 2 2 2 1 2 3 4 4 5 3 3 4 3 1 1 2 3 2 1 1 3 2 3 4 4 3 4 3 2 6 3 5 3 1 1 3 5 3 6 6 3 4 6 5 5 8 8 8 8 8 8 7 6 7 7 6 8 6 3 9 12 15 16 11 8 8 2 2 6 11 13
3 4 3 4 4 3 5 5 4 4 5 7 5 1 1 3 3 2 3 1 0 0 4 5 2 2 3 2 3 3 1 2 3 3 2 3 1 3 2 2 3 4 5 4 4 1 4 6 2 2 3 2 1 6 6 7 7 6 5 5 6 4 6 6 6 7 8 8 7 8 9 7 6 5 3 5 11 11 11 12 11 10 8 3 3 3 7 10
5 7 6 5 5 4 5 4 3 2 5 6 1 3 1 2 3 3 2 1 0 2 6 4 0 1 3 3 1 3 1 2 3 2 2 3 2 3 2 1 3 3 5 4 5 2 2 9 4 3 3 2 2 7 9 9 9 8 6 5 5 6 6 5 6 7 9 9 8 9 10 7 5 3 5 8 11 12 12 12 11 11 10 6 5 4 5 7
7 8 5 5 5 5 4 3 2 3 6 5 3 3 2 4 5 3 1 0 1 2 4 2 1 2 2 3 1 2 1 3 0 1 2 2 1 3 3 2 1 3 4 4 5 2 2 6 3 3 2 4 5 7 8 7 8 6 5 4 5 5 6 6 6 6 8 9 8 9 9 5 0 3 6 9 10 11 12 12 10 11 12 10 8 5 3 5
6 5 3 5 4 4 4 3 2 5 5 2 2 4 4 5 5 4 2 0 1 2 2 0 1 3 2 1 2 0 1 2 2 2 1 1 1 3 4 4 4 4 4 4 4 3 2 3 5 5 3 4 7 6 6 6 4 4 5 6 6 5 6 6 7 7 7 8 7 8 8 3 4 4 5 7 8 9 11 11 10 12 13 12 12 10 5 2
5 4 4 4 2 4 3 2 4 4 3 2 4 5 5 4 6 7 5 2 2 3 3 1 0 0 1 1 1 0 2 2 2 3 1 1 2 1 4 6 6 5 4 6 4 1 3 3 5 8 6 7 8 5 5 6 8 7 6 7 7 7 7 7 8 8 7 8 7 8 8 1 4 3 4 5 6 7 10 11 10 12 14 15 15 13 10 6
6 2 4 2 2 4 1 2 3 2 2 3 5 6 4 3 4 6 5 4 4 3 2 3 2 2 1 1 1 1 2 2 1 3 2 0 1 2 5 6 6 5 4 6 2 3 3 5 6 7 7 8 10 9 7 6 8 9 8 8 7 7 7 8 8 6 6 8 7 8 9 2 4 4 5 5 5 6 10 11 11 12 17 18 17 16 14 10
2 4 5 2 3 3 3 2 4 2 2 4 6 6 5 3 3 4 3 2 2 2 2 2 2 2 2 1 1 1 2 1 2 2 1 1 2 4 5 7 6 4 4 5 1 2 2 4 5 7 7 8 11 10 6 5 7 9 8 7 6 7 8 7 6 4 6 8 5 5 7 2 3 4 6 5 5 5 9 11 11 13 19 19 17 17 16 13
5 7 5 2 3 2 3 2 5 4 4 6 7 7 6 6 5 4 3 3 3 1 1 3 2 2 2 2 1 1 2 2 2 0 1 2 2 5 3 6 6 4 2 3 3 3 3 3 3 6 6 6 7 7 5 4 5 5 5 5 6 8 9 7 4 3 5 7 6 7 6 1 3 5 8 7 6 6 9 12 13 14 19 18 16 16 15 13
6 6 5 4 3 3 2 2 1 4 6 7 7 7 6 6 6 6 6 6 5 2 1 3 2 1 2 0 1 1 1 3 2 1 1 3 2 3 2 5 5 4 2 4 4 4 4 4 3 5 6 5 4 3 2 2 3 4 5 7 7 8 8 5 2 3 5 4 3 7 6 1 2 5 9 10 10 10 11 13 14 15 18 17 16 18 16 13
4 4 4 5 4 3 1 1 1 4 6 6 5 4 3 5 6 5 5 5 5 4 3 3 1 1 1 2 3 2 1 2 2 1 2 2 0 1 3 4 3 2 2 1 4 5 5 5 6 7 7 7 7 7 5 5 6 7 8 9 8 8 8 4 2 3 3 2 2 7 9 6 2 6 11 12 13 12 12 14 15 14 17 16 15 19 19 14
3 1 1 3 4 4 4 5 3 3 4 3 2 2 3 5 6 3 3 3 3 3 3 3 0 1 1 1 3 1 1 1 2 2 3 3 3 2 4 4 2 1 1 4 5 5 5 6 7 8 9 9 9 9 8 8 9 9 10 11 10 9 7 5 5 4 3 2 2 7 10 9 4 8 12 13 13 12 12 14 13 12 14 13 13 19 22 16
2 2 2 1 2 2 3 4 2 3 4 2 0 2 4 4 4 2 3 3 3 1 0 2 2 1 3 1 2 1 1 2 3 1 3 3 4 4 3 3 3 1 4 6 4 4 6 8 7 8 9 11 11 9 8 9 9 9 10 10 10 10 7 5 8 7 3 3 4 6 9 6 6 8 11 12 13 12 12 13 11 10 11 9 10 18 22 18
1 3 3 2 1 3 4 4 3 4 4 2 1 2 4 4 3 2 2 2 3 1 2 2 4 3 3 2 1 1 2 2 1 2 3 3 5 5 3 2 3 2 4 5 3 2 5 7 7 8 10 12 11 9 8 9 8 8 9 8 8 9 6 4 5 8 8 8 7 9 8 3 6 8 10 12 13 12 11 12 10 10 10 9 11 17 22 18
3 3 4 4 4 5 5 4 4 4 3 1 1 2 3 4 3 4 2 2 1 3 2 2 4 3 2 2 2 1 2 4 5 4 4 4 4 3 2 2 1 2 5 5 2 2 4 3 3 5 9 10 10 8 8 9 7 7 7 5 7 7 6 6 3 6 9 9 9 12 8 2 6 10 11 12 13 10 9 12 11 10 10 10 11 11 19 17
6 8 7 5 4 3 2 4 3 3 3 2 1 3 4 4 3 4 3 1 2 1 1 1 2 2 2 2 2 1 3 4 6 6 6 6 5 3 2 2 4 5 5 4 2 3 4 4 3 5 8 8 7 7 8 9 9 8 4 4 6 5 4 3 1 2 5 9 11 11 6 2 7 11 13 14 14 11 9 11 12 9 8 8 8 5 14 14
7 9 7 3 2 1 2 4 3 3 1 2 2 3 3 3 4 3 2 2 1 0 2 1 1 2 3 2 1 3 4 6 8 8 7 7 7 6 5 4 5 5 4 4 3 3 4 5 5 4 6 6 5 5 7 10 10 7 2 2 3 2 0 3 4 4 1 4 7 7 4 4 8 11 13 14 14 12 10 11 13 13 11 11 8 6 11 11
Wind_Direction
272 272 273 274 276 276 277 277 278 279 279 280 280 281 281 281 282 283 284 285 286 288 288 288 287 286 282 281 279 277 274 271 268 266 269 266 262 275 282 307 326 17 30 73 119 113 118 170 283 26 27 360 23 11 343 344 313 285 265 263 315 75 75 28 25 55 286 115 110 136 179 199 168 162 156 160 175 162 164 173 161 160 169 124 118 137 152 161
278 279 279 279 280 280 281 280 281 280 280 281 279 279 278 279 281 281 284 285 287 290 292 294 295 295 290 289 288 284 279 273 267 262 262 253 248 261 267 301 336 36 51 128 152 132 119 235 253 11 3 9 37 4 345 340 314 315 309 310 47 43 64 83 67 68 19 69 97 134 172 199 178 157 163 180 174 167 171 169 170 157 143 139 134 144 155 161
283 283 283 283 284 283 283 284 284 283 282 280 279 279 277 277 277 277 278 281 285 289 293 299 303 305 300 297 296 293 289 283 274 264 256 244 237 243 246 257 273 360 70 151 185 161 60 360 192 360 336 14 41 18 8 354 324 341 318 353 62 32 67 115 121 101 76 78 119 128 154 205 174 156 172 204 186 178 198 175 175 172 151 149 147 151 159 164
288 287 287 286 286 286 287 288 287 287 285 283 281 280 278 276 275 274 274 274 278 283 289 296 305 311 309 307 303 301 300 287 260 243 251 239 228 230 236 242 251 266 321 177 197 187 38 23 47 344 313 19 45 29 27 20 334 339 331 8 51 5 73 122 136 128 113 118 150 130 178 209 166 181 192 211 206 189 211 191 188 182 158 155 155 158 165 167
289 289 289 288 289 290 291 291 290 289 286 285 282 280 279 276 274 272 270 270 271 275 280 288 300 310 314 314 307 305 301 281 135 240 257 225 217 221 228 232 238 255 255 201 192 209 238 16 339 325 331 24 36 33 40 26 315 330 31 29 28 341 45 122 153 152 132 132 179 173 201 231 164 207 209 216 231 200 148 178 188 175 162 160 161 164 168 170
289 289 288 289 290 290 291 290 288 287 285 284 282 281 280 278 275 272 269 267 266 268 272 280 291 303 315 317 309 302 295 307 62 331 249 206 211 214 222 225 229 244 237 205 204 217 222 318 316 333 358 34 29 26 35 22 322 345 66 45 18 356 36 119 175 181 169 175 185 172 211 258 241 227 218 225 241 320 42 158 170 164 164 163 162 166 171 173
289 288 288 288 288 288 287 285 283 283 283 283 283 282 281 279 276 273 271 266 264 264 265 272 280 293 310 315 319 302 281 298 341 327 213 203 207 208 218 222 227 234 219 205 212 218 235 296 327 341 340 48 25 20 26 17 341 348 37 40 30 33 39 127 183 199 209 215 180 218 239 244 253 252 242 236 239 253 34 165 158 157 161 161 163 168 173 176
291 290 290 289 287 285 283 282 280 279 280 281 282 281 281 280 277 275 273 270 266 263 261 265 269 281 299 318 326 294 258 265 295 324 218 203 201 207 217 218 227 225 212 211 219 234 246 304 346 339 333 34 11 7 12 357 206 354 14 35 26 193 182 149 175 197 216 231 229 245 242 241 247 255 259 248 239 213 180 162 158 158 160 164 168 170 175 178
293 291 290 288 286 284 282 281 278 278 278 278 280 280 281 280 278 277 276 276 272 267 259 258 261 268 286 322 309 280 235 240 249 349 212 197 198 209 213 219 229 217 211 215 223 240 255 324 1 348 335 1 356 359 359 345 39 3 1 24 325 202 205 187 181 195 218 232 237 242 232 239 241 247 250 237 231 194 174 170 163 163 164 167 171 173 177 179
293 290 289 287 285 283 282 281 279 278 276 276 278 279 282 282 281 279 280 282 276 271 260 254 255 257 272 316 286 266 153 228 196 90 146 181 189 201 208 217 222 208 210 214 222 242 282 321 351 337 315 325 339 350 355 352 6 347 337 339 259 215 209 209 200 200 217 229 230 243 240 237 232 235 231 202 203 189 177 174 169 169 168 169 172 174 178 181
293 290 289 287 285 285 283 282 279 277 275 276 278 280 283 284 281 280 282 284 277 272 262 253 250 251 262 272 266 277 83 187 146 120 127 149 158 154 181 198 188 197 204 210 223 249 281 309 329 312 304 331 324 330 11 359 345 330 320 290 227 215 221 215 217 205 212 224 218 243 257 242 226 232 235 189 186 185 179 176 172 173 170 169 171 174 179 183
294 292 291 289 288 287 284 282 279 277 277 278 281 283 284 283 281 281 283 281 274 270 262 254 246 246 261 258 257 265 241 183 150 155 134 131 141 137 150 154 143 180 200 221 239 251 265 288 302 296 320 330 315 326 6 349 329 313 304 290 229 200 220 207 211 207 216 219 185 236 259 234 215 219 226 199 186 182 180 178 173 173 171 171 172 174 180 184
298 296 295 295 293 290 286 283 279 279 281 284 287 286 283 282 280 279 277 273 267 265 260 251 241 239 255 260 257 254 232 201 170 171 158 137 138 143 153 151 144 169 192 219 244 247 252 270 281 293 315 314 322 343 317 310 307 283 271 295 266 176 152 161 189 194 208 193 155 227 262 241 212 206 203 193 186 182 181 180 175 175 174 172 173 177 182 185
302 303 304 303 300 294 288 284 282 283 286 290 290 286 284 279 274 270 266 266 263 263 253 236 232 230 250 265 269 263 228 203 180 168 174 154 140 151 151 141 138 150 165 184 218 227 242 265 267 275 282 292 318 315 282 258 276 292 266 271 289 61 103 128 166 183 188 168 165 222 273 305 254 193 188 192 186 183 186 184 180 180 179 174 175 181 184 187
308 312 313 311 306 298 290 286 284 286 291 294 293 290 282 267 266 263 261 264 262 253 222 214 208 198 252 266 277 274 207 185 177 172 179 164 142 151 152 143 131 129 132 158 206 213 236 254 250 266 274 279 289 284 274 255 249 301 289 263 335 353 80 118 149 189 195 170 178 207 273 261 229 174 184 193 187 188 194 189 184 185 183 178 178 182 186 188
312 318 319 316 309 299 291 287 286 289 294 298 295 283 268 266 264 259 260 253 244 196 169 180 172 192 262 260 236 242 147 155 181 184 184 173 157 164 166 157 167 265 297 238 223 201 201 234 248 275 281 268 268 272 284 271 227 245 301 323 348 335 350 99 149 189 206 187 188 208 264 272 187 159 185 190 192 196 197 194 191 190 187 182 181 184 186 188
313 319 320 317 311 301 291 287 287 291 296 298 289 264 261 273 264 260 257 187 120 127 153 153 158 207 251 174 132 115 124 154 182 187 191 187 176 171 168 164 183 255 292 255 215 200 203 226 242 250 250 253 270 278 272 262 256 283 307 315 322 324 327 340 133 167 197 220 218 217 243 272 256 180 185 189 196 202 201 200 196 192 190 188 186 188 189 190
310 317 320 319 314 302 292 288 286 287 294 257 169 146 118 113 105 94 109 107 101 108 140 163 176 217 200 167 152 115 134 176 181 189 198 198 191 177 174 178 178 197 215 215 197 199 205 213 234 248 242 238 242 249 252 275 303 309 310 309 313 314 313 323 5 75 209 234 247 233 240 265 261 208 197 199 197 203 207 204 201 196 192 192 192 193 192 193
308 314 319 319 311 300 291 281 278 269 164 146 143 128 112 112 110 84 107 132 138 130 90 167 192 313 79 138 147 115 155 179 183 195 199 203 200 188 194 204 210 228 226 211 184 192 214 215 224 246 247 239 247 271 281 299 308 308 303 300 304 302 301 324 346 5 275 261 251 248 255 271 268 225 205 204 198 203 209 206 205 202 196 195 198 198 197 198
307 313 318 317 306 294 277 257 213 149 147 141 134 127 118 164 191 147 174 216 223 245 345 159 208 300 58 124 131 109 152 165 181 200 205 206 202 194 205 215 223 231 235 234 176 179 220 233 229 241 254 273 305 309 297 298 300 297 293 285 284 292 297 311 335 74 243 279 277 270 272 277 275 255 214 207 202 202 206 205 204 205 201 200 201 202 200 201
306 312 318 314 302 283 248 191 153 146 144 142 135 128 46 296 243 116 182 227 234 235 233 212 220 240 157 151 168 115 143 159 161 186 202 197 196 198 195 209 229 224 214 240 246 168 220 243 246 251 272 291 294 298 294 291 289 285 285 283 283 293 293 294 319 109 181 263 298 296 283 278 268 259 225 205 206 206 205 204 203 204 203 203 204 204 203 201
305 315 318 309 294 270 203 157 149 147 146 148 138 130 352 14 59 66 237 201 99 200 214 197 212 228 210 202 204 138 154 168 149 170 188 176 191 201 178 198 231 228 177 211 243 223 221 242 249 251 268 274 272 275 277 279 280 278 275 275 280 286 284 275 134 137 185 241 306 306 292 286 269 256 232 205 208 213 209 207 205 204 203 204 205 203 203 201
308 317 316 302 277 193 165 151 149 149 150 152 140 139 182 64 74 67 5 259 100 89 132 174 207 234 225 229 196 164 186 189 149 167 180 168 184 204 189 201 228 245 202 213 241 246 243 251 252 262 270 265 262 258 263 272 268 262 261 267 271 273 285 288 127 156 214 233 291 302 290 287 272 246 229 212 211 215 214 212 209 207 207 206 206 205 202 200
314 314 304 253 148 138 148 149 150 153 154 155 149 143 128 36 29 36 343 274 112 93 91 138 147 160 202 216 186 195 222 231 158 168 177 174 176 190 205 219 231 235 225 233 255 266 278 318 53 275 259 261 269 262 256 261 260 256 257 264 272 279 297 311 313 297 260 230 249 285 285 278 254 215 212 204 207 212 214 215 213 211 211 209 209 210 207 203
314 306 169 141 129 122 131 138 147 156 151 152 157 135 12 2 4 1 300 239 124 102 106 118 117 114 190 204 170 204 239 217 180 166 174 186 186 179 196 226 244 237 171 237 259 266 281 319 267 255 251 251 263 265 257 258 266 260 249 255 284 299 305 307 305 302 282 245 207 267 291 278 218 246 206 167 194 208 207 212 215 212 210 210 210 211 210 208
308 217 151 138 121 113 117 128 144 152 142 145 185 245 340 320 322 331 289 207 125 107 153 135 130 131 127 190 185 235 232 173 146 185 183 192 196 215 228 181 226 292 52 266 260 262 295 3 251 259 261 251 249 255 255 253 263 263 241 262 295 299 302 302 301 290 283 288 236 249 287 285 255 266 210 156 194 204 201 210 216 213 210 210 210 209 208 208
281 171 155 140 124 108 117 140 143 137 134 177 196 312 353 316 321 330 273 188 120 90 162 109 86 142 122 152 203 235 249 111 135 179 188 196 189 222 248 180 198 238 172 267 258 167 198 286 234 250 258 251 248 250 238 227 252 266 301 316 291 296 304 303 295 278 269 281 258 239 265 278 269 264 170 176 210 204 204 213 214 213 212 211 211 208 206 207
211 173 159 149 137 98 126 148 138 130 175 191 182 6 4 346 349 315 261 184 101 56 154 100 57 162 157 229 214 250 316 10 196 142 167 199 185 209 247 243 270 246 185 256 285 103 134 286 282 270 261 250 254 269 264 246 256 269 301 308 296 297 302 300 289 276 269 274 262 228 234 274 271 242 176 201 243 231 214 213 213 215 214 213 213 210 207 206
187 172 161 159 149 108 140 148 138 166 197 195 194 305 354 353 347 259 255 83 104 181 100 109 138 138 179 222 207 247 277 265 290 101 155 196 189 208 263 265 279 275 212 244 279 349 327 300 299 287 271 267 276 284 281 263 258 274 299 291 278 277 289 294 285 278 266 260 261 252 275 291 280 271 234 217 257 272 239 208 207 214 215 214 213 211 208 205
176 170 165 166 157 131 151 158 168 188 196 216 229 328 340 328 271 233 225 105 113 138 98 141 198 157 213 223 190 194 234 209 100 128 160 185 193 208 270 289 260 265 237 236 255 274 275 244 261 265 263 281 296 288 273 261 264 277 282 271 261 252 265 281 279 279 269 257 254 264 289 282 275 278 258 225 285 299 297 271 207 208 212 213 213 211 208 204
172 174 171 171 171 152 143 165 224 220 215 232 255 316 301 264 242 244 209 120 126 142 150 150 128 156 208 233 198 153 191 171 143 185 185 174 189 201 226 231 229 245 244 230 226 248 239 208 200 234 252 278 283 269 255 246 257 266 263 264 261 244 235 254 251 231 257 260 239 230 255 254 257 261 257 296 311 305 303 315 322 264 210 209 214 213 209 205
164 178 179 181 192 190 160 188 229 230 223 236 266 262 255 211 218 250 104 165 200 124 144 100 88 115 151 178 75 101 189 168 156 214 220 204 197 190 236 256 279 264 255 241 214 263 237 185 124 151 182 252 275 262 230 212 223 234 240 253 259 255 248 248 246 244 256 258 245 265 264 256 259 258 261 282 295 317 333 323 322 320 273 217 215 214 210 207
152 175 188 197 211 215 205 211 227 227 217 239 258 247 248 221 205 116 103 179 56 65 81 85 96 107 194 194 100 93 195 135 150 208 212 242 227 151 118 355 331 281 282 316 305 291 270 152 158 182 158 181 280 291 270 226 228 232 240 251 251 258 263 261 258 260 264 259 240 271 281 265 256 240 228 258 293 340 346 330 321 313 296 251 223 216 210 207
137 151 175 201 218 219 215 218 221 217 209 238 251 234 230 223 162 76 147 126 70 98 132 149 163 150 170 155 64 44 205 104 129 204 190 216 227 188 150 97 7 274 274 287 285 290 290 247 171 182 93 114 292 318 328 328 300 274 290 280 265 264 266 272 275 267 270 264 225 203 271 264 259 342 251 279 335 357 356 347 336 325 308 263 222 210 206 206
117 106 115 182 202 207 212 214 207 207 217 239 246 227 216 211 121 140 153 98 110 158 145 176 229 211 162 117 90 11 327 72 141 199 210 227 233 214 139 76 41 322 279 273 287 296 279 277 101 64 18 319 307 330 318 302 284 279 305 272 263 269 266 273 283 283 288 279 247 217 248 261 280 302 284 320 16 3 351 345 334 341 353 315 203 191 197 201
83 57 91 148 162 188 192 190 186 194 218 236 240 223 200 36 61 126 77 65 149 159 166 189 221 238 206 155 147 135 355 318 177 194 190 141 73 57 31 44 38 356 319 294 304 301 276 271 105 107 197 172 322 326 286 277 289 307 273 268 291 296 278 276 273 275 278 273 264 246 244 251 260 267 262 3 18 358 344 337 332 354 6 358 150 178 190 194
72 84 108 136 148 156 156 155 153 168 218 247 253 215 86 48 35 44 54 43 319 11 236 214 193 259 241 199 165 128 151 201 188 222 196 157 131 50 32 52 46 2 353 324 295 357 303 286 229 228 244 140 360 301 261 245 270 284 276 310 339 295 263 267 261 260 257 257 263 256 253 254 250 254 276 339 354 350 339 334 346 8 11 27 76 136 185 190
104 110 102 113 129 118 124 134 121 161 230 245 203 80 64 81 58 35 43 11 281 227 242 240 144 269 262 244 166 96 291 228 168 228 238 185 166 28 357 56 73 17 4 314 280 65 314 281 262 175 250 303 295 276 260 225 226 265 300 323 307 270 259 259 257 264 262 262 266 258 255 257 258 297 327 333 343 343 339 342 356 12 14 21 57 99 158 183
131 132 93 78 108 105 98 100 106 210 235 232 155 116 101 90 78 57 62 18 307 250 243 267 353 237 241 277 297 94 303 299 285 236 252 218 154 52 11 356 37 8 3 310 293 358 302 278 274 162 185 316 286 257 263 233 202 230 283 274 257 273 278 266 264 270 265 265 270 266 260 251 147 15 338 335 342 343 344 347 352 9 18 24 36 52 109 167
151 165 90 69 98 93 69 86 153 221 232 225 113 120 119 102 90 78 66 27 331 333 305 245 241 228 180 260 289 11 306 308 306 271 250 193 163 94 50 11 333 337 344 291 283 307 272 258 273 265 256 286 274 260 287 302 266 248 266 263 256 265 273 275 271 259 256 263 266 266 264 254 65 31 345 340 344 345 346 345 352 10 21 29 30 21 21 93
197 195 91 69 75 74 66 134 183 226 222 114 101 118 121 106 104 98 84 81 66 28 14 42 29 255 153 221 236 359 282 256 259 271 246 191 221 143 55 21 337 328 309 268 258 302 298 271 274 283 281 273 281 307 328 313 296 285 281 277 274 271 273 274 262 244 243 259 262 265 262 219 67 17 356 354 347 349 346 344 357 14 24 29 26 15 11 20
219 185 90 64 70 76 311 211 172 222 207 116 98 107 114 106 111 107 92 88 91 71 59 66 40 32 62 297 14 60 274 261 254 270 249 188 329 43 45 18 340 313 293 282 300 39 327 290 274 276 279 282 289 296 294 284 279 278 271 269 275 275 268 264 265 264 259 259 268 279 271 197 77 9 5 14 6 357 351 351 356 16 30 25 16 10 8 13
198 97 91 81 90 95 268 208 156 182 137 106 99 99 105 111 118 119 108 78 76 91 104 95 39 20 62 360 334 252 283 283 245 277 266 190 79 63 36 7 342 297 277 279 290 66 302 272 275 279 278 274 266 257 251 251 258 258 251 256 275 280 277 281 289 293 275 269 279 284 269 202 95 4 358 15 35 13 357 359 357 17 32 21 10 10 4 6
114 98 91 81 115 168 256 218 167 160 123 127 130 115 100 81 63 80 94 50 37 77 109 90 56 31 64 27 326 338 335 284 217 290 295 225 94 71 28 360 341 304 301 330 3 18 302 270 285 290 285 270 244 222 204 209 241 265 270 274 285 285 287 299 313 291 261 263 257 251 254 160 85 5 355 3 30 23 3 3 360 20 33 19 10 13 3 1
135 117 98 85 113 175 263 324 198 155 140 145 140 127 120 94 57 53 76 69 53 46 63 89 73 39 87 125 248 128 348 301 273 89 245 238 112 86 6 355 333 306 10 9 336 310 284 286 294 288 291 296 290 291 299 274 287 299 281 271 275 280 284 297 330 268 256 277 283 263 274 334 34 4 358 360 13 10 2 3 0 19 31 16 10 15 4 357
180 158 135 127 133 173 168 74 209 171 155 157 144 138 153 128 103 75 70 75 74 65 61 89 107 238 186 211 229 182 122 303 299 291 265 272 79 64 337 333 315 319 29 357 286 275 270 275 268 266 275 289 303 315 317 303 294 289 279 275 275 280 284 279 239 241 254 353 325 271 283 296 340 11 359 359 6 359 357 1 356 10 23 14 15 16 1 349
226 175 115 143 144 151 144 145 180 166 146 170 163 157 170 143 136 125 64 61 89 88 75 75 83 245 176 222 227 183 46 256 245 290 298 297 309 317 302 276 239 340 296 244 253 265 265 264 256 250 256 269 285 295 293 287 284 286 285 283 281 285 288 271 265 293 19 41 245 258 285 304 6 16 355 357 1 352 352 356 349 2 14 6 13 15 359 345
219 89 56 122 149 143 132 132 150 146 142 165 181 176 184 167 162 142 88 99 122 146 245 115 107 81 68 36 244 157 360 230 191 289 317 307 310 313 286 236 193 192 265 257 252 259 264 270 270 260 262 272 277 278 281 281 282 285 281 280 284 286 285 270 271 284 296 263 265 278 292 320 22 10 355 358 353 345 346 346 348 10 9 354 9 10 352 338
127 107 114 139 103 68 85 101 140 156 135 116 139 188 200 189 169 108 75 145 151 137 284 176 126 105 83 59 317 13 16 314 278 347 335 317 308 308 301 258 189 195 274 275 263 258 265 268 270 271 276 278 272 269 271 271 279 283 277 284 299 299 318 353 316 304 296 284 292 297 296 359 34 5 4 0 347 346 348 343 0 25 11 12 28 4 337 324
157 136 133 135 106 91 101 129 172 177 142 148 185 163 193 207 174 127 100 289 180 134 221 185 132 123 98 70 314 336 42 342 314 320 319 307 302 306 314 322 316 304 297 286 254 206 236 263 280 277 275 269 261 259 260 266 279 279 275 318 349 340 7 32 354 319 313 299 290 288 287 348 354 348 11 9 354 1 357 346 7 23 8 31 52 352 315 312
151 143 142 142 112 97 132 147 177 203 175 188 189 151 180 197 166 142 128 8 340 96 148 161 138 156 184 210 269 330 32 327 297 296 294 286 293 312 320 322 319 310 298 290 267 213 232 270 273 256 265 267 255 250 260 273 276 261 257 15 9 351 24 61 141 299 315 306 295 287 284 313 320 339 13 14 360 3 359 349 1 4 1 48 76 309 301 317
121 129 133 145 131 149 180 157 182 230 177 91 106 149 182 169 154 181 173 131 163 37 63 33 273 246 233 225 328 8 346 310 294 290 282 270 271 278 279 286 301 304 305 305 288 251 259 281 274 258 268 274 264 262 274 279 271 250 202 45 344 316 223 183 177 169 244 307 297 285 298 330 328 348 10 8 357 352 347 348 345 338 351 29 41 329 315 329
Height
1546 1546 1546 1545 1545 1545 1544 1544 1544 1543 1543 1542 1542 1542 1541 1541 1540 1540 1540 1539 1538 1538 1537 1537 1537 1537 1536 1536 1536 1536 1535 1535 1535 1535 1535 1536 1536 1537 1537 1537 1537 1538 1537 1537 1538 1538 1538 1539 1538 1537 1537 1537 1536 1536 1535 1535 1534 1532 1529 1531 1532 1532 1536 1538 1534 1535 1537 1534 1533 1536 1537 1537 1538 1538 1540 1540 1541 1542 1544 1545 1546 1548 1549 1549 1550 1551 1552 1554
1545 1545 1545 1544 1544 1543 1543 1543 1543 1542 1542 1541 1541 1540 1540 1540 1539 1539 1539 1538 1538 1537 1537 1536 1536 1536 1536 1535 1535 1535 1534 1534 1534 1534 1534 1534 1535 1536 1537 1537 1538 1538 1538 1539 1539 1539 1539 1539 1538 1537 1537 1536 1536 1536 1535 1535 1534 1531 1529 1530 1533 1534 1535 1535 1533 1534 1534 1534 1534 1535 1537 1537 1537 1537 1539 1540 1539 1541 1543 1544 1546 1547 1549 1550 1551 1551 1552 1554
1544 1544 1544 1543 1543 1542 1542 1542 1541 1541 1540 1540 1539 1539 1539 1538 1538 1538 1538 1537 1537 1537 1536 1536 1536 1535 1535 1535 1534 1534 1534 1533 1534 1534 1533 1533 1534 1535 1536 1537 1538 1538 1539 1540 1540 1540 1540 1539 1539 1538 1537 1535 1535 1536 1535 1535 1533 1531 1531 1532 1535 1534 1533 1534 1535 1536 1536 1536 1535 1535 1537 1536 1536 1537 1539 1539 1537 1539 1540 1541 1544 1545 1547 1550 1551 1552 1553 1554
1544 1543 1543 1542 1542 1541 1541 1541 1540 1540 1539 1539 1538 1538 1537 1537 1537 1537 1537 1536 1536 1536 1536 1535 1535 1535 1535 1535 1534 1534 1533 1533 1532 1532 1532 1532 1533 1534 1535 1537 1538 1538 1539 1540 1540 1540 1540 1539 1539 1538 1537 1534 1535 1535 1534 1535 1535 1532 1532 1535 1535 1533 1533 1535 1536 1537 1537 1537 1536 1537 1538 1536 1536 1538 1538 1537 1538 1540 1538 1539 1542 1543 1546 1548 1550 1552 1553 1554
1543 1542 1542 1541 1541 1540 1540 1540 1539 1538 1538 1537 1537 1536 1536 1536 1536 1535 1535 1535 1535 1535 1535 1535 1535 1535 1535 1534 1534 1533 1533 1533 1531 1531 1531 1532 1533 1534 1535 1536 1538 1538 1539 1540 1540 1540 1540 1540 1539 1538 1535 1533 1533 1534 1534 1535 1535 1533 1533 1534 1534 1534 1535 1536 1537 1538 1538 1538 1537 1537 1537 1537 1536 1537 1537 1537 1538 1539 1537 1538 1541 1542 1545 1547 1549 1551 1553 1554
1542 1541 1541 1540 1540 1540 1539 1539 1538 1537 1536 1536 1536 1535 1535 1535 1534 1534 1534 1534 1534 1534 1534 1534 1535 1535 1535 1534 1534 1533 1534 1534 1531 1531 1531 1531 1532 1534 1535 1536 1537 1538 1539 1540 1540 1540 1540 1540 1539 1537 1534 1533 1533 1533 1535 1536 1535 1535 1534 1533 1534 1535 1536 1537 1538 1538 1538 1538 1537 1537 1538 1537 1536 1536 1536 1536 1536 1536 1537 1539 1541 1542 1545 1546 1548 1550 1552 1554
1541 1540 1540 1539 1539 1538 1538 1537 1537 1536 1535 1535 1534 1534 1534 1533 1533 1533 1533 1533 1533 1533 1533 1534 1534 1534 1534 1534 1534 1533 1533 1533 1531 1531 1531 1531 1532 1534 1535 1536 1537 1538 1539 1540 1541 1541 1541 1540 1538 1536 1533 1533 1534 1533 1535 1536 1535 1536 1535 1534 1535 1536 1536 1538 1538 1538 1539 1539 1538 1538 1538 1537 1537 1537 1536 1536 1536 1536 1539 1540 1541 1543 1545 1546 1548 1550 1552 1553
1539 1539 1538 1538 1537 1537 1536 1536 1535 1535 1534 1533 1533 1533 1533 1532 1532 1532 1532 1532 1532 1532 1533 1533 1533 1534 1534 1534 1534 1533 1533 1532 1532 1531 1531 1532 1533 1534 1535 1536 1537 1538 1540 1541 1541 1541 1541 1539 1538 1537 1534 1534 1535 1534 1534 1535 1535 1535 1535 1535 1536 1537 1537 1537 1538 1539 1539 1539 1539 1539 1538 1538 1538 1538 1537 1536 1536 1537 1539 1540 1541 1543 1544 1546 1548 1549 1551 1553
1538 1538 1537 1537 1536 1536 1535 1534 1534 1533 1533 1532 1532 1532 1532 1531 1531 1531 1531 1531 1531 1531 1532 1532 1533 1534 1534 1534 1534 1532 1531 1531 1531 1531 1531 1532 1533 1534 1535 1536 1537 1539 1540 1541 1541 1542 1541 1539 1539 1538 1536 1535 1535 1534 1533 1535 1537 1534 1534 1535 1536 1536 1537 1537 1538 1538 1539 1539 1539 1538 1538 1538 1538 1538 1537 1535 1536 1537 1539 1540 1541 1542 1544 1545 1547 1549 1551 1553
1537 1537 1536 1535 1535 1534 1534 1533 1532 1532 1531 1531 1531 1531 1531 1531 1531 1530 1531 1530 1531 1531 1531 1532 1532 1533 1533 1534 1534 1531 1530 1531 1531 1532 1532 1532 1533 1535 1536 1537 1538 1539 1540 1541 1541 1542 1541 1540 1540 1540 1538 1536 1535 1534 1533 1534 1536 1534 1533 1534 1535 1535 1536 1537 1537 1537 1539 1538 1538 1538 1537 1537 1537 1538 1536 1534 1535 1537 1538 1539 1541 1542 1543 1545 1546 1548 1550 1552
1536 1535 1535 1534 1534 1533 1532 1532 1531 1531 1530 1530 1530 1530 1530 1530 1530 1530 1530 1530 1530 1530 1530 1531 1532 1533 1533 1534 1533 1530 1530 1531 1531 1532 1532 1532 1534 1535 1536 1537 1538 1539 1541 1541 1542 1542 1542 1541 1541 1540 1538 1536 1535 1533 1533 1534 1535 1534 1533 1534 1534 1534 1535 1535 1535 1536 1537 1537 1537 1537 1536 1536 1537 1537 1534 1533 1535 1536 1537 1539 1540 1541 1542 1544 1546 1548 1550 1552
1535 1534 1533 1533 1532 1532 1531 1530 1530 1530 1529 1529 1529 1529 1529 1529 1529 1529 1529 1529 1529 1530 1530 1531 1531 1532 1533 1534 1533 1531 1531 1531 1531 1532 1532 1533 1534 1535 1536 1537 1538 1540 1541 1541 1542 1541 1542 1541 1541 1541 1538 1537 1535 1534 1535 1535 1535 1534 1533 1535 1532 1532 1535 1533 1533 1535 1535 1535 1536 1537 1538 1536 1534 1534 1532 1532 1534 1535 1536 1538 1539 1540 1542 1543 1545 1547 1549 1551
1534 1533 1532 1532 1531 1530 1530 1529 1529 1529 1528 1529 1529 1529 1529 1529 1529 1529 1529 1529 1529 1529 1530 1530 1531 1532 1533 1532 1531 1531 1531 1531 1531 1532 1533 1534 1535 1536 1536 1537 1538 1539 1541 1541 1541 1541 1541 1541 1541 1541 1539 1538 1535 1536 1537 1533 1534 1534 1532 1533 1531 1534 1538 1533 1532 1534 1534 1535 1535 1538 1542 1536 1530 1529 1530 1531 1533 1534 1535 1537 1538 1539 1540 1542 1544 1546 1548 1549
1532 1532 1531 1531 1530 1529 1529 1528 1528 1528 1528 1528 1528 1528 1528 1528 1528 1528 1528 1528 1529 1529 1530 1530 1531 1532 1533 1532 1530 1530 1530 1531 1532 1532 1533 1534 1535 1536 1537 1537 1538 1539 1540 1540 1541 1541 1541 1541 1541 1540 1539 1538 1536 1536 1534 1531 1533 1532 1532 1533 1530 1536 1538 1530 1530 1532 1534 1535 1533 1538 1543 1538 1531 1528 1528 1530 1531 1532 1534 1534 1536 1538 1539 1540 1542 1544 1546 1548
1531 1531 1530 1530 1529 1529 1528 1528 1527 1527 1527 1528 1528 1528 1528 1528 1528 1528 1528 1528 1529 1529 1529 1530 1531 1532 1532 1531 1530 1529 1530 1531 1532 1533 1534 1534 1536 1537 1537 1538 1539 1539 1539 1540 1540 1540 1541 1541 1541 1538 1537 1537 1536 1536 1534 1532 1532 1531 1537 1539 1532 1534 1535 1529 1529 1530 1532 1534 1532 1538 1544 1539 1532 1527 1528 1529 1530 1531 1532 1533 1535 1536 1537 1539 1541 1542 1544 1546
1531 1530 1529 1529 1528 1528 1527 1527 1527 1527 1527 1527 1527 1528 1528 1528 1528 1528 1528 1528 1529 1529 1530 1530 1531 1532 1531 1530 1529 1529 1530 1531 1532 1533 1534 1534 1536 1537 1537 1538 1539 1539 1539 1540 1540 1540 1541 1540 1540 1538 1537 1536 1534 1535 1537 1538 1537 1533 1538 1542 1538 1536 1534 1531 1531 1528 1528 1531 1531 1536 1540 1536 1529 1526 1527 1528 1529 1530 1531 1532 1533 1535 1536 1537 1539 1540 1542 1544
1530 1529 1528 1528 1527 1527 1526 1526 1526 1526 1527 1527 1527 1528 1528 1528 1528 1528 1528 1529 1529 1529 1530 1530 1531 1532 1531 1529 1529 1530 1531 1531 1532 1533 1534 1535 1536 1537 1538 1539 1539 1540 1539 1540 1540 1540 1541 1540 1539 1537 1535 1533 1531 1535 1544 1550 1546 1539 1536 1538 1537 1536 1535 1534 1533 1528 1526 1530 1531 1532 1534 1532 1526 1524 1526 1526 1528 1529 1529 1531 1531 1533 1535 1536 1538 1539 1540 1542
1529 1528 1528 1527 1526 1526 1525 1525 1526 1526 1527 1527 1527 1528 1528 1528 1528 1528 1529 1529 1529 1530 1530 1530 1531 1532 1531 1529 1529 1530 1530 1531 1531 1532 1534 1534 1536 1537 1538 1539 1539 1540 1539 1539 1539 1539 1540 1538 1536 1536 1533 1533 1532 1536 1548 1551 1546 1543 1541 1540 1538 1535 1534 1533 1532 1528 1526 1529 1530 1530 1531 1529 1522 1520 1523 1525 1526 1527 1527 1529 1530 1531 1533 1535 1536 1537 1538 1540
1528 1527 1527 1526 1525 1525 1525 1525 1525 1526 1526 1527 1528 1528 1528 1528 1529 1529 1529 1529 1529 1529 1529 1529 1529 1530 1530 1529 1529 1530 1530 1530 1531 1532 1533 1534 1535 1537 1538 1539 1539 1539 1538 1537 1536 1536 1537 1536 1537 1540 1537 1534 1532 1533 1540 1541 1539 1540 1539 1539 1541 1538 1534 1530 1528 1525 1524 1528 1529 1527 1528 1524 1519 1518 1519 1522 1523 1525 1526 1527 1529 1530 1531 1533 1534 1535 1536 1538
1527 1527 1526 1525 1524 1524 1524 1525 1525 1526 1526 1527 1528 1528 1529 1528 1528 1528 1529 1529 1528 1528 1527 1528 1528 1528 1528 1529 1530 1530 1530 1531 1531 1532 1533 1534 1535 1537 1538 1538 1538 1537 1536 1534 1534 1533 1535 1538 1539 1538 1534 1531 1530 1531 1533 1534 1534 1536 1536 1537 1537 1536 1534 1528 1526 1523 1523 1528 1526 1521 1523 1520 1517 1515 1514 1519 1521 1521 1523 1525 1527 1528 1529 1530 1531 1533 1534 1536
1526 1526 1525 1524 1524 1524 1524 1524 1525 1526 1527 1527 1528 1528 1529 1528 1527 1527 1528 1528 1527 1527 1527 1528 1528 1528 1528 1529 1529 1529 1530 1531 1531 1532 1532 1533 1535 1536 1536 1537 1536 1536 1533 1532 1533 1533 1536 1540 1537 1531 1528 1528 1529 1530 1532 1533 1534 1534 1534 1534 1533 1534 1533 1525 1524 1523 1522 1528 1525 1518 1521 1519 1515 1512 1510 1514 1517 1517 1519 1520 1523 1525 1527 1528 1529 1531 1532 1534
1526 1525 1524 1524 1523 1523 1524 1524 1525 1526 1527 1528 1528 1529 1529 1528 1527 1528 1527 1526 1527 1527 1527 1527 1528 1528 1528 1529 1529 1529 1530 1529 1530 1532 1531 1533 1535 1534 1533 1534 1535 1533 1531 1533 1536 1536 1539 1538 1531 1526 1526 1528 1530 1530 1532 1534 1533 1533 1531 1532 1534 1533 1529 1524 1523 1523 1522 1527 1525 1519 1521 1517 1510 1508 1507 1508 1511 1512 1514 1516 1519 1522 1524 1526 1526 1528 1530 1532
1525 1524 1524 1523 1523 1524 1524 1524 1525 1526 1527 1528 1528 1529 1529 1528 1528 1527 1527 1526 1526 1527 1527 1527 1528 1528 1529 1529 1529 1529 1529 1528 1529 1531 1531 1533 1533 1533 1533 1533 1533 1532 1532 1533 1535 1537 1538 1532 1524 1524 1527 1529 1531 1530 1531 1533 1531 1530 1529 1530 1533 1528 1527 1529 1526 1523 1522 1524 1524 1522 1521 1514 1506 1505 1504 1505 1508 1509 1512 1513 1515 1518 1520 1522 1524 1526 1527 1529
1524 1523 1524 1523 1523 1524 1524 1525 1526 1526 1528 1528 1528 1529 1528 1528 1527 1527 1527 1524 1524 1526 1527 1527 1527 1528 1529 1528 1529 1529 1529 1528 1528 1529 1531 1532 1532 1533 1532 1531 1532 1533 1532 1532 1533 1536 1534 1526 1523 1527 1529 1530 1533 1531 1531 1534 1531 1527 1525 1527 1529 1525 1525 1526 1522 1520 1520 1521 1522 1523 1524 1515 1506 1508 1506 1503 1506 1508 1510 1511 1512 1514 1516 1519 1521 1523 1525 1526
1524 1523 1523 1523 1524 1524 1524 1525 1526 1527 1528 1528 1529 1529 1528 1529 1527 1527 1527 1525 1525 1526 1526 1527 1527 1528 1528 1528 1528 1528 1528 1528 1528 1529 1530 1531 1532 1532 1531 1531 1532 1532 1531 1531 1533 1535 1530 1524 1525 1529 1529 1530 1533 1532 1529 1531 1531 1528 1522 1520 1523 1523 1523 1522 1519 1521 1526 1528 1521 1522 1533 1525 1507 1507 1507 1503 1506 1507 1507 1508 1509 1511 1513 1516 1518 1520 1522 1524
1523 1523 1523 1524 1524 1524 1525 1526 1526 1528 1528 1529 1530 1528 1528 1529 1527 1528 1526 1524 1528 1528 1526 1527 1527 1528 1528 1528 1528 1528 1529 1528 1527 1529 1530 1531 1532 1531 1531 1531 1530 1531 1531 1531 1531 1531 1527 1524 1526 1529 1529 1529 1531 1531 1526 1526 1532 1531 1519 1515 1519 1521 1522 1521 1519 1524 1532 1532 1520 1517 1533 1532 1515 1507 1504 1503 1506 1506 1505 1505 1505 1507 1509 1510 1513 1515 1518 1520
1523 1523 1523 1524 1525 1525 1526 1526 1527 1528 1529 1530 1529 1528 1529 1528 1527 1528 1526 1529 1534 1529 1525 1527 1527 1528 1528 1527 1527 1528 1532 1530 1527 1528 1529 1530 1531 1532 1532 1529 1530 1531 1529 1531 1533 1529 1525 1526 1528 1528 1529 1530 1530 1529 1522 1522 1532 1529 1515 1514 1519 1519 1521 1521 1519 1522 1525 1524 1519 1514 1522 1530 1524 1511 1503 1502 1505 1505 1504 1503 1502 1503 1505 1506 1508 1511 1514 1516
1522 1523 1524 1524 1525 1525 1526 1526 1528 1529 1529 1530 1529 1529 1529 1527 1528 1527 1528 1540 1540 1526 1524 1527 1526 1527 1528 1528 1527 1527 1529 1528 1527 1529 1528 1530 1531 1531 1531 1528 1528 1529 1527 1532 1536 1528 1523 1527 1528 1527 1530 1530 1526 1523 1518 1520 1528 1523 1512 1514 1518 1518 1520 1518 1518 1519 1518 1523 1527 1517 1516 1530 1528 1510 1501 1502 1504 1504 1502 1500 1500 1499 1500 1502 1504 1506 1509 1512
1522 1523 1524 1525 1525 1526 1526 1527 1528 1529 1529 1529 1529 1530 1528 1528 1530 1526 1529 1541 1536 1523 1525 1526 1525 1527 1527 1526 1527 1526 1526 1525 1527 1529 1528 1529 1530 1529 1529 1527 1526 1527 1526 1529 1532 1525 1522 1525 1525 1525 1529 1526 1520 1517 1515 1520 1524 1517 1512 1516 1516 1516 1517 1517 1519 1518 1519 1530 1533 1519 1516 1531 1532 1512 1503 1507 1506 1502 1496 1493 1494 1495 1496 1498 1499 1502 1505 1508
1522 1523 1524 1525 1526 1526 1527 1527 1528 1528 1529 1529 1529 1529 1528 1529 1529 1530 1538 1540 1530 1525 1526 1525 1525 1526 1525 1525 1526 1525 1525 1525 1525 1527 1528 1528 1529 1529 1529 1528 1527 1527 1526 1526 1527 1523 1520 1522 1523 1524 1525 1521 1518 1517 1515 1517 1518 1514 1516 1518 1515 1514 1517 1520 1519 1519 1531 1538 1528 1518 1517 1529 1536 1520 1505 1504 1502 1496 1492 1490 1489 1490 1492 1495 1496 1498 1500 1503
1522 1523 1524 1525 1526 1527 1527 1528 1528 1528 1529 1529 1529 1528 1529 1528 1526 1534 1542 1534 1526 1527 1525 1524 1525 1523 1524 1526 1525 1525 1524 1524 1525 1526 1527 1527 1528 1528 1528 1529 1528 1527 1528 1525 1524 1521 1518 1521 1522 1520 1521 1519 1519 1519 1515 1514 1515 1516 1519 1519 1519 1519 1520 1525 1523 1526 1543 1542 1523 1516 1516 1523 1535 1523 1503 1498 1492 1487 1489 1489 1487 1487 1488 1491 1493 1494 1496 1499
1522 1523 1524 1525 1526 1526 1527 1528 1527 1528 1528 1528 1529 1528 1529 1531 1531 1533 1534 1528 1529 1530 1525 1525 1525 1523 1525 1525 1525 1526 1525 1525 1525 1524 1525 1524 1525 1527 1528 1529 1528 1532 1533 1526 1524 1523 1518 1517 1518 1518 1520 1519 1520 1520 1515 1512 1514 1518 1519 1521 1529 1532 1532 1537 1536 1533 1538 1531 1516 1514 1516 1521 1524 1512 1500 1497 1490 1485 1486 1487 1487 1486 1487 1489 1491 1492 1493 1495
1523 1523 1524 1525 1526 1526 1527 1527 1527 1528 1528 1528 1529 1527 1528 1534 1536 1531 1527 1528 1531 1527 1523 1526 1524 1523 1525 1525 1527 1526 1525 1527 1525 1524 1525 1524 1526 1528 1528 1527 1527 1533 1535 1528 1528 1529 1522 1516 1515 1519 1520 1517 1519 1521 1519 1515 1513 1515 1516 1521 1531 1538 1544 1547 1542 1537 1535 1525 1513 1513 1519 1523 1516 1502 1496 1493 1487 1485 1486 1487 1488 1487 1487 1488 1488 1490 1492 1493
1523 1523 1524 1525 1525 1526 1526 1527 1527 1527 1528 1528 1528 1527 1530 1535 1533 1528 1527 1527 1527 1524 1524 1526 1524 1524 1525 1526 1528 1525 1526 1528 1525 1524 1526 1526 1528 1529 1528 1528 1527 1529 1531 1530 1530 1531 1533 1529 1519 1519 1521 1517 1517 1519 1520 1518 1516 1511 1508 1514 1521 1526 1537 1543 1538 1537 1535 1523 1515 1518 1524 1523 1514 1502 1492 1487 1487 1490 1491 1490 1488 1487 1487 1487 1487 1489 1491 1492
1523 1523 1524 1524 1524 1525 1525 1526 1527 1527 1528 1528 1526 1527 1531 1532 1529 1527 1528 1526 1524 1525 1525 1524 1525 1527 1527 1527 1527 1524 1526 1529 1525 1525 1527 1526 1528 1529 1529 1530 1529 1527 1531 1534 1530 1528 1536 1532 1518 1516 1518 1517 1518 1517 1516 1520 1520 1512 1508 1515 1519 1514 1518 1526 1527 1525 1524 1524 1521 1521 1520 1511 1501 1493 1485 1485 1490 1492 1492 1492 1490 1488 1486 1486 1488 1488 1489 1491
1523 1523 1524 1524 1524 1525 1525 1526 1526 1527 1528 1527 1526 1527 1527 1527 1525 1525 1525 1525 1525 1526 1526 1527 1527 1529 1529 1527 1527 1526 1525 1527 1525 1527 1529 1529 1530 1531 1532 1531 1530 1529 1531 1534 1531 1530 1535 1529 1515 1516 1518 1515 1519 1517 1514 1521 1522 1516 1516 1519 1512 1504 1509 1523 1529 1520 1521 1534 1527 1513 1512 1506 1500 1496 1486 1486 1494 1495 1494 1494 1490 1487 1485 1486 1488 1488 1490 1491
1523 1523 1523 1524 1524 1525 1525 1526 1526 1527 1527 1525 1527 1527 1524 1524 1525 1523 1524 1525 1525 1525 1528 1531 1530 1530 1532 1529 1528 1528 1526 1526 1526 1527 1530 1532 1533 1534 1534 1532 1531 1531 1530 1532 1531 1530 1536 1531 1516 1516 1521 1516 1516 1517 1513 1514 1517 1518 1521 1516 1507 1506 1510 1519 1533 1531 1531 1540 1527 1509 1511 1512 1511 1509 1495 1489 1499 1502 1499 1495 1489 1486 1486 1486 1486 1489 1492 1492
1523 1523 1524 1524 1525 1525 1525 1525 1525 1526 1526 1524 1528 1529 1524 1524 1525 1524 1525 1525 1525 1525 1528 1531 1530 1531 1532 1531 1530 1529 1528 1528 1528 1528 1530 1532 1534 1535 1534 1533 1532 1530 1530 1532 1531 1528 1534 1536 1521 1514 1521 1518 1512 1518 1517 1511 1510 1514 1515 1511 1512 1524 1524 1520 1531 1538 1539 1541 1528 1513 1510 1510 1511 1512 1505 1502 1504 1504 1500 1495 1491 1487 1486 1487 1486 1489 1492 1493
1523 1523 1524 1525 1525 1525 1525 1525 1525 1526 1525 1524 1527 1528 1525 1525 1526 1526 1527 1526 1525 1526 1528 1529 1530 1530 1531 1531 1531 1530 1530 1530 1528 1530 1532 1532 1535 1536 1534 1535 1534 1531 1531 1531 1531 1528 1530 1539 1533 1516 1515 1518 1514 1518 1521 1514 1510 1510 1511 1511 1513 1522 1525 1522 1523 1528 1535 1539 1533 1523 1515 1510 1510 1510 1510 1510 1506 1503 1501 1498 1493 1489 1488 1489 1489 1490 1492 1494
1522 1522 1524 1525 1525 1525 1525 1525 1525 1525 1524 1523 1524 1525 1525 1525 1527 1527 1528 1527 1526 1527 1528 1528 1530 1531 1531 1531 1531 1531 1531 1531 1530 1531 1532 1532 1535 1536 1535 1536 1535 1532 1532 1530 1530 1530 1528 1537 1540 1523 1514 1521 1521 1516 1515 1516 1516 1515 1517 1518 1517 1517 1517 1520 1520 1517 1523 1531 1533 1533 1527 1516 1511 1508 1507 1508 1505 1503 1502 1499 1495 1491 1490 1492 1492 1493 1494 1494
1522 1521 1524 1526 1525 1525 1525 1524 1524 1523 1522 1522 1523 1524 1525 1526 1527 1528 1529 1528 1527 1528 1528 1528 1529 1530 1532 1532 1532 1532 1532 1532 1532 1532 1532 1532 1534 1536 1536 1537 1536 1533 1533 1530 1529 1531 1531 1534 1539 1531 1523 1524 1520 1510 1510 1516 1518 1517 1519 1518 1518 1520 1521 1531 1533 1517 1512 1520 1523 1528 1527 1518 1511 1506 1505 1505 1504 1503 1502 1499 1497 1493 1492 1493 1494 1496 1496 1495
1520 1520 1524 1525 1524 1525 1524 1523 1523 1521 1521 1523 1524 1525 1527 1527 1527 1528 1529 1528 1528 1528 1528 1529 1530 1531 1533 1533 1532 1533 1533 1533 1534 1533 1533 1533 1533 1535 1537 1537 1537 1535 1534 1532 1529 1531 1533 1533 1535 1534 1527 1522 1516 1509 1510 1515 1514 1516 1518 1515 1515 1518 1521 1533 1538 1522 1514 1516 1513 1517 1521 1516 1509 1504 1502 1503 1502 1502 1502 1501 1499 1495 1493 1493 1495 1497 1497 1496
1520 1521 1524 1525 1524 1524 1523 1523 1524 1522 1523 1525 1526 1526 1528 1528 1528 1528 1529 1528 1529 1529 1529 1531 1533 1533 1534 1534 1533 1535 1534 1535 1536 1534 1534 1535 1534 1536 1537 1537 1537 1534 1533 1532 1530 1532 1534 1534 1537 1535 1525 1517 1512 1508 1509 1513 1515 1517 1516 1512 1515 1519 1517 1520 1525 1524 1525 1522 1521 1533 1535 1521 1511 1506 1502 1501 1500 1502 1503 1501 1500 1496 1492 1494 1497 1499 1499 1498
1522 1523 1524 1524 1524 1524 1522 1523 1524 1525 1526 1526 1527 1528 1529 1529 1529 1529 1529 1530 1530 1530 1531 1533 1534 1534 1534 1534 1534 1535 1536 1537 1538 1535 1535 1536 1536 1537 1538 1538 1537 1534 1533 1534 1533 1535 1536 1535 1539 1542 1537 1528 1519 1516 1517 1517 1516 1518 1517 1515 1517 1518 1517 1519 1521 1528 1535 1526 1526 1543 1539 1520 1512 1508 1504 1501 1498 1500 1502 1501 1500 1496 1493 1497 1500 1500 1500 1500
1522 1523 1524 1524 1524 1524 1523 1521 1521 1524 1527 1527 1528 1529 1529 1531 1533 1532 1531 1532 1532 1531 1532 1534 1535 1534 1534 1535 1535 1536 1536 1537 1537 1536 1536 1535 1535 1537 1537 1538 1537 1534 1535 1537 1535 1536 1537 1535 1538 1544 1548 1544 1535 1531 1530 1527 1522 1520 1520 1520 1519 1518 1520 1524 1529 1540 1544 1532 1531 1543 1536 1518 1512 1509 1506 1504 1499 1499 1500 1500 1501 1497 1495 1500 1502 1501 1502 1501
1520 1521 1523 1523 1524 1524 1523 1523 1522 1523 1525 1527 1530 1531 1530 1532 1534 1533 1533 1533 1534 1533 1534 1535 1535 1535 1535 1536 1537 1538 1537 1537 1537 1537 1537 1536 1536 1537 1537 1537 1538 1536 1536 1538 1536 1535 1535 1535 1535 1539 1542 1539 1534 1530 1527 1526 1527 1526 1524 1521 1519 1520 1519 1521 1532 1542 1541 1536 1542 1547 1536 1522 1515 1510 1509 1506 1502 1502 1500 1499 1502 1499 1497 1500 1502 1502 1503 1503
1519 1520 1521 1522 1524 1523 1523 1524 1524 1523 1524 1527 1530 1531 1531 1532 1533 1533 1534 1534 1534 1535 1535 1535 1535 1535 1537 1537 1538 1539 1539 1538 1538 1538 1538 1538 1536 1535 1536 1535 1536 1537 1536 1536 1535 1534 1536 1535 1531 1532 1533 1529 1526 1525 1523 1524 1527 1526 1526 1524 1521 1521 1520 1523 1531 1532 1532 1539 1546 1540 1529 1524 1520 1513 1510 1508 1505 1504 1502 1501 1503 1500 1498 1501 1502 1502 1504 1505
1521 1522 1522 1523 1524 1523 1523 1525 1525 1525 1526 1527 1530 1531 1532 1532 1533 1534 1534 1534 1535 1535 1535 1537 1537 1536 1537 1538 1538 1540 1541 1540 1540 1540 1539 1539 1537 1535 1535 1533 1534 1536 1535 1533 1533 1533 1535 1535 1528 1527 1530 1526 1523 1523 1522 1523 1524 1524 1524 1524 1523 1520 1520 1525 1528 1527 1530 1538 1538 1530 1525 1526 1524 1518 1512 1509 1507 1506 1504 1504 1504 1501 1501 1503 1501 1501 1505 1507
1522 1523 1524 1524 1524 1524 1525 1527 1526 1526 1527 1528 1530 1532 1532 1533 1534 1534 1534 1534 1536 1535 1535 1538 1539 1537 1537 1538 1538 1540 1542 1542 1542 1541 1540 1540 1539 1538 1536 1534 1533 1534 1533 1532 1531 1532 1535 1533 1527 1527 1529 1526 1522 1522 1522 1522 1523 1523 1523 1523 1523 1520 1522 1530 1534 1535 1536 1534 1530 1530 1530 1528 1525 1520 1514 1511 1510 1508 1506 1506 1503 1502 1505 1504 1499 1501 1507 1510
1522 1523 1524 1524 1525 1526 1527 1527 1527 1526 1528 1530 1531 1533 1533 1533 1534 1535 1535 1535 1536 1536 1536 1537 1538 1538 1538 1539 1539 1540 1541 1542 1542 1542 1541 1541 1540 1538 1538 1537 1535 1533 1533 1532 1531 1533 1535 1532 1527 1529 1532 1528 1521 1520 1521 1521 1522 1524 1524 1524 1525 1525 1528 1535 1540 1541 1542 1539 1535 1535 1535 1534 1529 1520 1514 1514 1513 1510 1509 1508 1505 1504 1505 1504 1502 1509 1515 1513
1523 1523 1524 1524 1526 1528 1528 1527 1527 1526 1528 1529 1531 1533 1534 1533 1534 1535 1536 1537 1537 1536 1536 1536 1537 1537 1538 1539 1539 1539 1539 1541 1541 1540 1539 1540 1539 1538 1538 1537 1536 1535 1534 1532 1532 1532 1533 1531 1527 1530 1534 1528 1519 1519 1522 1520 1519 1523 1527 1531 1533 1532 1533 1537 1539 1541 1543 1544 1543 1537 1534 1536 1532 1520 1515 1515 1515 1514 1513 1510 1508 1508 1509 1508 1510 1517 1518 1513
1524 1525 1525 1524 1526 1529 1528 1527 1527 1527 1529 1530 1531 1533 1534 1533 1534 1535 1536 1538 1537 1537 1537 1537 1537 1537 1537 1538 1539 1539 1540 1540 1540 1539 1539 1539 1538 1537 1538 1537 1537 1537 1535 1533 1533 1531 1531 1531 1527 1528 1535 1529 1518 1519 1522 1521 1524 1528 1531 1534 1535 1533 1534 1535 1535 1536 1537 1540 1544 1541 1533 1531 1528 1520 1517 1517 1518 1518 1516 1513 1512 1512 1510 1509 1511 1515 1515 1512